Online Auction of Sound, Stage, and Lighting Equipment for Sale in Orange County, CA

Lot #0124: 12' Aluminum Stage Truss

Bidding is closed.
High Bid:$310.00
NA
Bidding Ended: Thu, Jan 10  10:28:45 am PT
High Bidder: lakinetics
Bid Increment: $10.00
Starting Bid: $5.00
Item Location: Fullerton, CA 92833
Item has been viewed 495 times.

12' Aluminum Stage Truss

NOTE: Photos are representative of the lot. 

Bid Date Bid Amount Bidder
Jan 10, 2019 - 10:26:45 AM $310.00 ilakinetics
Jan 10, 2019 - 10:26:45 AM $300.00 iDano1954
Jan 10, 2019 - 10:24:51 AM $267.00 ilakinetics
Jan 10, 2019 - 10:24:51 AM $257.00 iHALO479
Jan 10, 2019 - 10:23:03 AM $220.00 ilakinetics
Jan 10, 2019 - 10:23:03 AM $210.00 iDano1954
Jan 10, 2019 - 7:55:49 AM $150.00 iDano1954
Jan 10, 2019 - 7:55:49 AM $145.00 islsprod
Jan 9, 2019 - 6:46:34 PM $90.00 islsprod
Jan 9, 2019 - 6:46:34 PM $85.00 ifuzztheraven
Jan 9, 2019 - 10:41:04 AM $60.00 ifuzztheraven
Jan 9, 2019 - 10:41:04 AM $55.00 idjcraze88
Jan 9, 2019 - 9:56:37 AM $50.00 ifuzztheraven
Jan 9, 2019 - 9:56:37 AM $45.00 imcannonjr
Jan 9, 2019 - 8:06:49 AM $40.00 imcannonjr
Jan 9, 2019 - 8:06:47 AM $35.00 itjoneslt
Jan 9, 2019 - 8:06:47 AM $30.00 imcannonjr
Jan 9, 2019 - 8:06:45 AM $25.00 itjoneslt
Jan 9, 2019 - 8:06:45 AM $20.00 imcannonjr
Jan 8, 2019 - 9:57:22 PM $15.00 itjoneslt
Jan 8, 2019 - 12:37:29 PM $10.00 iKurt Musser
Jan 8, 2019 - 11:58:24 AM $5.00 iJolaerts
Click on any picture to see a larger image.